QPF
0.00 0.00 0.00 0.00 0.00 0.00 0.00 0.00 0.00 0.01 0.00 0.01 0.01 0.01 0.01 0.01 0.01 0.01 0.01 0.02 0.02 0.02 0.02 0.02 0.03 0.03 0.03 0.03 0.03 0.04 0.05 0.06 0.07 0.08 0.07 0.07 0.05 0.05 0.04 0.04 0.03 0.03 0.04 0.05
0.00 0.00 0.00 0.00 0.00 0.00 0.00 0.00 0.00 0.00 0.00 0.00 0.01 0.01 0.02 0.01 0.01 0.01 0.01 0.01 0.02 0.02 0.02 0.02 0.03 0.03 0.03 0.03 0.03 0.04 0.05 0.05 0.06 0.06 0.07 0.07 0.06 0.05 0.06 0.05 0.04 0.04 0.04 0.04
0.00 0.00 0.00 0.00 0.00 0.00 0.00 0.00 0.00 0.00 0.01 0.01 0.01 0.01 0.02 0.02 0.02 0.02 0.01 0.01 0.01 0.01 0.02 0.02 0.02 0.03 0.03 0.02 0.03 0.03 0.04 0.05 0.06 0.07 0.05 0.04 0.05 0.05 0.04 0.03 0.03 0.04 0.04 0.04
0.00 0.00 0.00 0.00 0.00 0.00 0.00 0.00 0.00 0.01 0.02 0.01 0.01 0.02 0.02 0.02 0.02 0.02 0.02 0.02 0.02 0.02 0.01 0.01 0.02 0.03 0.03 0.03 0.03 0.03 0.04 0.05 0.04 0.03 0.02 0.02 0.02 0.02 0.02 0.03 0.04 0.04 0.04 0.04
0.00 0.00 0.00 0.00 0.00 0.00 0.00 0.00 0.00 0.00 0.01 0.01 0.02 0.03 0.04 0.02 0.01 0.01 0.02 0.02 0.02 0.02 0.02 0.02 0.03 0.03 0.03 0.04 0.03 0.04 0.04 0.03 0.02 0.02 0.01 0.01 0.01 0.02 0.03 0.06 0.06 0.06 0.06 0.06
0.00 0.00 0.00 0.00 0.00 0.00 0.00 0.00 0.00 0.00 0.00 0.01 0.02 0.02 0.03 0.02 0.01 0.01 0.01 0.01 0.01 0.02 0.02 0.03 0.03 0.03 0.04 0.05 0.03 0.03 0.01 0.01 0.01 0.01 0.01 0.01 0.01 0.02 0.04 0.06 0.08 0.08 0.08 0.08
0.00 0.00 0.00 0.00 0.00 0.00 0.00 0.00 0.00 0.00 0.01 0.02 0.01 0.01 0.01 0.01 0.00 0.00 0.00 0.01 0.01 0.01 0.01 0.02 0.03 0.03 0.04 0.04 0.03 0.02 0.01 0.01 0.01 0.01 0.01 0.02 0.03 0.04 0.05 0.06 0.08 0.08 0.08 0.07
0.00 0.00 0.00 0.00 0.00 0.00 0.00 0.00 0.00 0.00 0.00 0.02 0.01 0.00 0.00 0.00 0.00 0.00 0.00 0.01 0.01 0.01 0.01 0.01 0.02 0.03 0.03 0.04 0.04 0.03 0.03 0.02 0.02 0.02 0.01 0.02 0.03 0.04 0.04 0.05 0.06 0.06 0.07 0.06
0.00 0.00 0.00 0.00 0.00 0.01 0.00 0.00 0.00 0.01 0.01 0.02 0.02 0.01 0.00 0.00 0.00 0.00 0.01 0.01 0.01 0.01 0.01 0.01 0.02 0.03 0.03 0.03 0.03 0.04 0.03 0.02 0.02 0.02 0.02 0.02 0.03 0.03 0.05 0.06 0.06 0.07 0.08 0.05
0.00 0.00 0.00 0.00 0.00 0.01 0.00 0.00 0.00 0.01 0.01 0.02 0.02 0.01 0.01 0.01 0.00 0.01 0.01 0.01 0.01 0.01 0.01 0.02 0.03 0.03 0.03 0.03 0.03 0.04 0.04 0.04 0.03 0.01 0.01 0.02 0.02 0.03 0.05 0.06 0.04 0.06 0.08 0.08
0.00 0.00 0.00 0.00 0.00 0.00 0.00 0.00 0.00 0.01 0.01 0.02 0.02 0.01 0.01 0.01 0.01 0.01 0.01 0.02 0.02 0.02 0.03 0.04 0.04 0.04 0.04 0.04 0.04 0.04 0.05 0.04 0.03 0.01 0.02 0.05 0.06 0.06 0.06 0.05 0.04 0.04 0.05 0.06
0.00 0.00 0.00 0.00 0.00 0.00 0.00 0.01 0.01 0.01 0.01 0.01 0.01 0.01 0.01 0.02 0.01 0.02 0.03 0.04 0.05 0.06 0.06 0.06 0.05 0.05 0.03 0.04 0.03 0.04 0.05 0.04 0.03 0.02 0.01 0.03 0.07 0.06 0.04 0.04 0.03 0.03 0.04 0.05
0.00 0.01 0.00 0.00 0.01 0.01 0.01 0.01 0.01 0.01 0.01 0.01 0.01 0.01 0.02 0.03 0.04 0.04 0.04 0.04 0.04 0.06 0.08 0.07 0.05 0.03 0.03 0.03 0.03 0.04 0.04 0.04 0.04 0.04 0.03 0.02 0.04 0.07 0.04 0.04 0.03 0.02 0.03 0.03
0.00 0.01 0.01 0.01 0.01 0.00 0.00 0.01 0.01 0.01 0.01 0.01 0.01 0.01 0.02 0.02 0.02 0.01 0.02 0.03 0.05 0.07 0.08 0.07 0.06 0.04 0.03 0.04 0.04 0.04 0.05 0.04 0.04 0.06 0.07 0.06 0.07 0.08 0.06 0.04 0.04 0.03 0.03 0.04
0.01 0.01 0.01 0.01 0.01 0.01 0.01 0.01 0.01 0.01 0.01 0.01 0.01 0.01 0.01 0.01 0.01 0.02 0.02 0.03 0.05 0.07 0.08 0.07 0.07 0.07 0.06 0.06 0.06 0.06 0.05 0.04 0.03 0.05 0.07 0.07 0.09 0.10 0.07 0.05 0.04 0.04 0.04 0.04
0.01 0.02 0.02 0.01 0.01 0.01 0.01 0.01 0.01 0.01 0.01 0.01 0.01 0.01 0.01 0.01 0.02 0.02 0.03 0.04 0.06 0.07 0.07 0.07 0.07 0.07 0.05 0.04 0.03 0.03 0.02 0.02 0.03 0.07 0.07 0.07 0.06 0.05 0.05 0.05 0.04 0.03 0.03 0.03
0.00 0.01 0.02 0.01 0.01 0.01 0.02 0.01 0.01 0.02 0.04 0.03 0.02 0.01 0.01 0.01 0.02 0.03 0.04 0.06 0.06 0.06 0.05 0.04 0.04 0.03 0.02 0.02 0.01 0.01 0.02 0.02 0.03 0.05 0.05 0.03 0.02 0.02 0.03 0.03 0.03 0.03 0.03 0.02
0.01 0.00 0.01 0.03 0.02 0.01 0.01 0.01 0.02 0.02 0.04 0.05 0.05 0.04 0.04 0.04 0.03 0.03 0.06 0.06 0.04 0.05 0.06 0.05 0.05 0.04 0.04 0.03 0.02 0.02 0.02 0.02 0.03 0.04 0.05 0.04 0.02 0.02 0.03 0.03 0.03 0.02 0.02 0.03
0.01 0.01 0.01 0.02 0.04 0.02 0.02 0.02 0.02 0.02 0.03 0.05 0.06 0.06 0.07 0.08 0.05 0.04 0.05 0.05 0.06 0.06 0.07 0.09 0.08 0.05 0.05 0.04 0.03 0.03 0.02 0.02 0.02 0.03 0.04 0.04 0.04 0.03 0.03 0.02 0.03 0.03 0.04 0.04
0.01 0.01 0.01 0.02 0.04 0.03 0.03 0.03 0.03 0.04 0.04 0.04 0.05 0.06 0.09 0.09 0.06 0.07 0.07 0.07 0.10 0.10 0.11 0.12 0.11 0.07 0.05 0.04 0.04 0.04 0.03 0.03 0.03 0.03 0.04 0.04 0.05 0.05 0.04 0.03 0.03 0.03 0.03 0.03
0.02 0.02 0.02 0.02 0.03 0.03 0.04 0.04 0.03 0.04 0.05 0.04 0.05 0.05 0.08 0.09 0.06 0.08 0.10 0.11 0.13 0.13 0.12 0.12 0.11 0.09 0.06 0.05 0.05 0.05 0.05 0.05 0.05 0.05 0.04 0.03 0.03 0.05 0.06 0.06 0.05 0.03 0.02 0.02
0.04 0.03 0.03 0.03 0.03 0.03 0.03 0.04 0.04 0.05 0.04 0.06 0.06 0.05 0.08 0.10 0.07 0.05 0.08 0.09 0.09 0.08 0.09 0.10 0.12 0.10 0.07 0.05 0.05 0.05 0.05 0.05 0.05 0.05 0.03 0.03 0.02 0.03 0.05 0.07 0.06 0.03 0.03 0.03
0.04 0.03 0.03 0.03 0.04 0.03 0.04 0.04 0.04 0.03 0.03 0.05 0.07 0.05 0.05 0.06 0.05 0.05 0.05 0.06 0.06 0.05 0.07 0.09 0.11 0.10 0.08 0.06 0.05 0.05 0.05 0.05 0.05 0.04 0.04 0.04 0.04 0.03 0.05 0.06 0.05 0.04 0.04 0.04
0.03 0.03 0.02 0.03 0.04 0.03 0.04 0.03 0.03 0.02 0.02 0.03 0.05 0.06 0.05 0.06 0.05 0.05 0.05 0.06 0.06 0.05 0.05 0.08 0.10 0.10 0.09 0.09 0.08 0.07 0.06 0.06 0.06 0.06 0.06 0.06 0.06 0.05 0.07 0.08 0.06 0.04 0.03 0.04
0.03 0.03 0.02 0.02 0.02 0.02 0.03 0.03 0.03 0.03 0.02 0.02 0.03 0.04 0.06 0.07 0.06 0.06 0.06 0.05 0.05 0.06 0.07 0.07 0.07 0.09 0.11 0.11 0.09 0.08 0.07 0.06 0.06 0.06 0.06 0.07 0.08 0.07 0.09 0.12 0.09 0.06 0.04 0.03
0.02 0.03 0.02 0.02 0.02 0.02 0.02 0.03 0.03 0.03 0.03 0.03 0.03 0.03 0.04 0.05 0.05 0.05 0.05 0.03 0.04 0.05 0.05 0.06 0.06 0.08 0.10 0.11 0.10 0.08 0.06 0.06 0.06 0.06 0.07 0.09 0.09 0.09 0.09 0.11 0.10 0.10 0.07 0.04
MSLP
1009.91 1010.58 1011.12 1011.52 1011.75 1011.84 1011.80 1011.66 1011.42 1011.10 1010.67 1010.14 1009.50 1008.74 1007.89 1006.98 1006.05 1005.15 1004.31 1003.56 1002.92 1002.40 1001.98 1001.66 1001.45 1001.35 1001.37 1001.54 1001.87 1002.37 1003.01 1003.77 1004.59 1005.43 1006.22 1006.92 1007.51 1007.98 1008.35 1008.65 1008.94 1009.25 1009.61 1010.06
1010.31 1010.78 1011.13 1011.34 1011.44 1011.45 1011.39 1011.28 1011.12 1010.87 1010.52 1010.03 1009.38 1008.60 1007.69 1006.70 1005.71 1004.75 1003.88 1003.13 1002.50 1001.97 1001.55 1001.20 1000.92 1000.72 1000.63 1000.68 1000.90 1001.31 1001.92 1002.69 1003.57 1004.50 1005.41 1006.23 1006.92 1007.46 1007.87 1008.19 1008.47 1008.76 1009.11 1009.53
1010.56 1010.81 1010.94 1010.97 1010.94 1010.88 1010.82 1010.76 1010.67 1010.50 1010.21 1009.75 1009.10 1008.27 1007.29 1006.22 1005.15 1004.15 1003.26 1002.51 1001.90 1001.41 1001.00 1000.63 1000.31 1000.03 999.83 999.75 999.85 1000.17 1000.72 1001.48 1002.40 1003.41 1004.41 1005.35 1006.15 1006.79 1007.28 1007.65 1007.96 1008.26 1008.60 1009.02
1010.66 1010.68 1010.60 1010.46 1010.32 1010.22 1010.18 1010.18 1010.17 1010.09 1009.85 1009.41 1008.73 1007.83 1006.76 1005.61 1004.46 1003.41 1002.50 1001.77 1001.20 1000.75 1000.38 1000.03 999.69 999.35 999.06 998.88 998.86 999.07 999.54 1000.26 1001.17 1002.21 1003.29 1004.32 1005.22 1005.96 1006.54 1006.99 1007.35 1007.69 1008.06 1008.50
1010.66 1010.46 1010.18 1009.90 1009.69 1009.58 1009.58 1009.66 1009.74 1009.72 1009.53 1009.09 1008.37 1007.39 1006.23 1004.97 1003.74 1002.63 1001.71 1001.00 1000.48 1000.10 999.80 999.50 999.18 998.82 998.47 998.20 998.07 998.16 998.52 999.15 1000.01 1001.04 1002.13 1003.20 1004.17 1004.99 1005.65 1006.18 1006.62 1007.03 1007.46 1007.93
1010.64 1010.23 1009.80 1009.42 1009.16 1009.07 1009.12 1009.28 1009.45 1009.50 1009.33 1008.88 1008.10 1007.04 1005.78 1004.42 1003.11 1001.96 1001.03 1000.35 999.90 999.61 999.39 999.17 998.90 998.56 998.18 997.84 997.61 997.58 997.81 998.31 999.06 1000.00 1001.04 1002.08 1003.07 1003.92 1004.64 1005.24 1005.76 1006.24 1006.74 1007.29
1010.67 1010.10 1009.55 1009.11 1008.84 1008.77 1008.89 1009.12 1009.34 1009.44 1009.28 1008.80 1007.97 1006.83 1005.48 1004.04 1002.67 1001.49 1000.57 999.94 999.57 999.37 999.26 999.14 998.94 998.64 998.26 997.88 997.56 997.41 997.49 997.83 998.42 999.21 1000.13 1001.08 1002.00 1002.84 1003.57 1004.21 1004.78 1005.34 1005.92 1006.53
1010.82 1010.14 1009.52 1009.04 1008.77 1008.73 1008.89 1009.16 1009.41 1009.52 1009.35 1008.83 1007.94 1006.74 1005.33 1003.85 1002.46 1001.28 1000.40 999.83 999.54 999.45 999.45 999.44 999.32 999.08 998.73 998.32 997.93 997.66 997.59 997.76 998.16 998.75 999.49 1000.29 1001.09 1001.85 1002.53 1003.16 1003.76 1004.36 1005.00 1005.69
1011.12 1010.38 1009.72 1009.22 1008.95 1008.91 1009.07 1009.34 1009.58 1009.65 1009.43 1008.87 1007.94 1006.71 1005.28 1003.80 1002.44 1001.31 1000.49 1000.01 999.82 999.83 999.94 1000.02 999.99 999.81 999.49 999.08 998.65 998.29 998.08 998.07 998.27 998.66 999.18 999.79 1000.42 1001.04 1001.63 1002.21 1002.79 1003.40 1004.07 1004.80
1011.54 1010.79 1010.11 1009.61 1009.31 1009.24 1009.36 1009.55 1009.71 1009.70 1009.42 1008.80 1007.85 1006.63 1005.23 1003.82 1002.54 1001.51 1000.79 1000.41 1000.32 1000.43 1000.62 1000.78 1000.83 1000.71 1000.43 1000.03 999.58 999.16 998.85 998.69 998.71 998.90 999.21 999.61 1000.05 1000.51 1000.97 1001.44 1001.96 1002.53 1003.19 1003.94
1012.04 1011.30 1010.63 1010.10 1009.76 1009.61 1009.61 1009.67 1009.69 1009.55 1009.17 1008.51 1007.55 1006.37 1005.08 1003.79 1002.66 1001.77 1001.19 1000.93 1000.93 1001.12 1001.37 1001.59 1001.68 1001.61 1001.37 1001.00 1000.55 1000.11 999.74 999.49 999.39 999.41 999.55 999.76 1000.01 1000.29 1000.60 1000.95 1001.36 1001.86 1002.46 1003.17
1012.52 1011.82 1011.16 1010.60 1010.17 1009.89 1009.72 1009.59 1009.42 1009.12 1008.63 1007.91 1006.97 1005.88 1004.73 1003.63 1002.69 1002.00 1001.59 1001.45 1001.55 1001.79 1002.08 1002.32 1002.43 1002.38 1002.18 1001.84 1001.42 1001.00 1000.62 1000.34 1000.16 1000.08 1000.09 1000.15 1000.25 1000.38 1000.53 1000.74 1001.03 1001.41 1001.92 1002.55
1012.91 1012.26 1011.61 1010.99 1010.46 1010.01 1009.62 1009.27 1008.87 1008.39 1007.77 1007.01 1006.12 1005.16 1004.19 1003.32 1002.62 1002.14 1001.91 1001.91 1002.09 1002.37 1002.66 1002.89 1003.00 1002.95 1002.76 1002.46 1002.10 1001.72 1001.38 1001.10 1000.91 1000.79 1000.72 1000.69 1000.67 1000.67 1000.69 1000.77 1000.92 1001.18 1001.57 1002.08
1013.19 1012.59 1011.92 1011.24 1010.58 1009.94 1009.32 1008.72 1008.09 1007.42 1006.69 1005.90 1005.08 1004.26 1003.51 1002.89 1002.44 1002.20 1002.16 1002.29 1002.53 1002.83 1003.11 1003.30 1003.38 1003.31 1003.13 1002.86 1002.54 1002.22 1001.94 1001.71 1001.54 1001.42 1001.32 1001.23 1001.14 1001.04 1000.96 1000.92 1000.95 1001.08 1001.34 1001.74
1013.36 1012.79 1012.11 1011.35 1010.55 1009.72 1008.88 1008.04 1007.20 1006.36 1005.53 1004.73 1003.98 1003.33 1002.80 1002.43 1002.24 1002.22 1002.36 1002.61 1002.91 1003.22 1003.46 1003.59 1003.61 1003.51 1003.32 1003.06 1002.78 1002.52 1002.29 1002.11 1001.98 1001.87 1001.76 1001.65 1001.50 1001.34 1001.18 1001.05 1000.98 1001.00 1001.15 1001.43
1013.47 1012.91 1012.19 1011.36 1010.43 1009.43 1008.40 1007.35 1006.33 1005.36 1004.46 1003.67 1003.02 1002.52 1002.20 1002.07 1002.11 1002.29 1002.59 1002.93 1003.27 1003.56 1003.76 1003.83 1003.79 1003.64 1003.41 1003.15 1002.88 1002.65 1002.46 1002.31 1002.19 1002.09 1001.97 1001.83 1001.65 1001.44 1001.22 1001.02 1000.88 1000.83 1000.89 1001.08
1013.58 1013.00 1012.25 1011.35 1010.31 1009.18 1008.00 1006.81 1005.66 1004.60 1003.67 1002.90 1002.34 1001.99 1001.85 1001.91 1002.14 1002.48 1002.89 1003.30 1003.66 1003.93 1004.07 1004.08 1003.97 1003.76 1003.49 1003.20 1002.93 1002.68 1002.49 1002.33 1002.19 1002.06 1001.90 1001.72 1001.49 1001.24 1000.98 1000.74 1000.56 1000.47 1000.48 1000.62
1013.74 1013.13 1012.33 1011.37 1010.27 1009.06 1007.79 1006.51 1005.30 1004.20 1003.27 1002.55 1002.07 1001.83 1001.83 1002.03 1002.39 1002.83 1003.31 1003.75 1004.11 1004.34 1004.43 1004.38 1004.21 1003.94 1003.62 1003.29 1002.97 1002.69 1002.44 1002.22 1002.02 1001.81 1001.57 1001.31 1001.03 1000.72 1000.43 1000.17 999.98 999.89 999.90 1000.03
1013.96 1013.30 1012.46 1011.47 1010.33 1009.09 1007.80 1006.51 1005.30 1004.21 1003.32 1002.66 1002.25 1002.09 1002.16 1002.44 1002.85 1003.34 1003.83 1004.26 1004.59 1004.79 1004.83 1004.72 1004.50 1004.19 1003.82 1003.44 1003.06 1002.71 1002.37 1002.05 1001.74 1001.41 1001.07 1000.71 1000.34 999.98 999.65 999.39 999.21 999.15 999.20 999.37
1014.19 1013.48 1012.61 1011.60 1010.47 1009.26 1008.00 1006.76 1005.61 1004.59 1003.76 1003.16 1002.80 1002.69 1002.79 1003.08 1003.49 1003.95 1004.41 1004.80 1005.08 1005.22 1005.22 1005.08 1004.82 1004.48 1004.08 1003.65 1003.22 1002.78 1002.34 1001.90 1001.45 1000.99 1000.52 1000.04 999.57 999.15 998.80 998.53 998.39 998.37 998.49 998.74
1014.35 1013.58 1012.70 1011.70 1010.62 1009.47 1008.31 1007.17 1006.12 1005.20 1004.46 1003.93 1003.62 1003.52 1003.61 1003.86 1004.21 1004.60 1004.98 1005.29 1005.51 1005.60 1005.56 1005.40 1005.13 1004.78 1004.37 1003.92 1003.43 1002.92 1002.39 1001.84 1001.26 1000.66 1000.06 999.47 998.92 998.43 998.06 997.80 997.69 997.74 997.93 998.26
1014.32 1013.52 1012.63 1011.67 1010.66 1009.62 1008.59 1007.60 1006.70 1005.91 1005.28 1004.82 1004.54 1004.44 1004.50 1004.67 1004.93 1005.22 1005.49 1005.71 1005.85 1005.89 1005.82 1005.65 1005.39 1005.06 1004.66 1004.20 1003.70 1003.15 1002.56 1001.92 1001.24 1000.54 999.84 999.16 998.54 998.02 997.62 997.38 997.31 997.41 997.67 998.07
1014.02 1013.19 1012.32 1011.42 1010.51 1009.60 1008.73 1007.92 1007.18 1006.55 1006.05 1005.67 1005.43 1005.32 1005.33 1005.42 1005.57 1005.73 1005.89 1006.02 1006.08 1006.07 1005.99 1005.83 1005.60 1005.30 1004.94 1004.52 1004.03 1003.48 1002.87 1002.19 1001.47 1000.71 999.96 999.24 998.58 998.04 997.65 997.42 997.38 997.52 997.83 998.28
1013.40 1012.56 1011.71 1010.88 1010.09 1009.34 1008.64 1008.02 1007.47 1007.01 1006.64 1006.36 1006.17 1006.06 1006.02 1006.03 1006.08 1006.14 1006.20 1006.23 1006.23 1006.19 1006.10 1005.96 1005.77 1005.52 1005.22 1004.85 1004.42 1003.91 1003.33 1002.67 1001.96 1001.21 1000.46 999.75 999.11 998.59 998.21 998.00 997.98 998.14 998.47 998.94
1012.46 1011.62 1010.81 1010.07 1009.39 1008.80 1008.29 1007.86 1007.51 1007.22 1006.99 1006.81 1006.68 1006.59 1006.53 1006.49 1006.47 1006.45 1006.42 1006.39 1006.35 1006.28 1006.19 1006.08 1005.94 1005.75 1005.52 1005.23 1004.87 1004.44 1003.93 1003.34 1002.70 1002.02 1001.34 1000.68 1000.10 999.63 999.29 999.11 999.11 999.27 999.59 1000.04
1011.27 1010.44 1009.69 1009.03 1008.48 1008.05 1007.71 1007.47 1007.29 1007.17 1007.09 1007.02 1006.96 1006.91 1006.86 1006.81 1006.75 1006.68 1006.62 1006.55 1006.48 1006.41 1006.34 1006.26 1006.16 1006.03 1005.87 1005.66 1005.39 1005.05 1004.64 1004.16 1003.63 1003.06 1002.49 1001.95 1001.46 1001.07 1000.79 1000.65 1000.66 1000.81 1001.09 1001.50
Thickness
5741 5728 5721 5727 5731 5733 5731 5727 5724 5734 5749 5744 5739 5741 5750 5756 5758 5759 5761 5762 5763 5764 5768 5768 5767 5765 5763 5761 5758 5756 5753 5750 5748 5745 5742 5739 5736 5735 5734 5734 5733 5732 5731 5729
5724 5721 5734 5737 5735 5732 5727 5721 5722 5732 5744 5740 5733 5736 5746 5751 5753 5758 5758 5759 5759 5760 5760 5762 5762 5761 5760 5757 5755 5752 5749 5747 5746 5743 5740 5738 5735 5733 5732 5731 5730 5729 5727 5726
5721 5730 5741 5735 5729 5725 5723 5720 5722 5724 5732 5734 5728 5724 5735 5747 5752 5755 5757 5758 5758 5757 5756 5757 5757 5756 5756 5754 5752 5750 5747 5745 5743 5740 5737 5734 5731 5729 5727 5726 5725 5725 5724 5723
5722 5733 5735 5731 5728 5726 5716 5731 5729 5725 5715 5706 5716 5698 5723 5734 5740 5746 5750 5752 5753 5754 5753 5753 5753 5752 5752 5751 5750 5747 5744 5741 5739 5736 5733 5730 5727 5723 5723 5723 5722 5721 5720 5719
5721 5730 5729 5725 5730 5731 5726 5734 5728 5721 5711 5701 5704 5695 5708 5724 5728 5737 5744 5748 5750 5750 5750 5750 5750 5750 5750 5748 5746 5743 5740 5737 5735 5732 5730 5726 5723 5721 5720 5719 5718 5716 5716 5715
5725 5734 5734 5733 5738 5736 5733 5724 5714 5702 5694 5684 5697 5691 5696 5712 5726 5734 5741 5744 5746 5747 5747 5747 5747 5746 5745 5744 5741 5738 5735 5732 5730 5728 5726 5723 5720 5718 5716 5714 5713 5711 5710 5709
5712 5722 5731 5735 5726 5726 5720 5699 5681 5677 5669 5676 5696 5691 5697 5721 5731 5735 5737 5740 5742 5743 5742 5742 5741 5740 5739 5738 5736 5733 5730 5727 5725 5724 5721 5720 5717 5715 5713 5711 5709 5707 5705 5705
5694 5697 5719 5726 5722 5713 5709 5699 5675 5665 5662 5673 5688 5686 5705 5725 5731 5735 5736 5737 5738 5737 5737 5738 5737 5736 5735 5734 5731 5728 5726 5723 5721 5719 5717 5715 5713 5711 5709 5708 5706 5704 5702 5702
5689 5693 5719 5726 5728 5719 5703 5693 5695 5676 5672 5667 5675 5690 5708 5722 5725 5728 5729 5730 5730 5732 5733 5734 5733 5732 5730 5728 5726 5724 5721 5719 5716 5715 5713 5711 5709 5708 5706 5704 5702 5700 5699 5698
5697 5690 5706 5718 5721 5715 5708 5696 5679 5669 5657 5656 5671 5681 5688 5705 5712 5718 5720 5722 5724 5727 5728 5729 5728 5727 5725 5724 5721 5719 5717 5714 5712 5711 5709 5708 5705 5704 5702 5700 5698 5696 5695 5693
5695 5685 5692 5700 5698 5695 5694 5688 5678 5666 5664 5655 5654 5671 5701 5703 5708 5710 5714 5718 5719 5720 5722 5722 5722 5721 5720 5718 5715 5713 5711 5709 5707 5706 5705 5703 5701 5699 5697 5696 5694 5692 5690 5688
5686 5675 5671 5685 5700 5704 5698 5688 5676 5666 5661 5657 5654 5668 5704 5702 5704 5707 5710 5714 5715 5715 5716 5715 5714 5713 5712 5710 5709 5707 5705 5704 5702 5701 5699 5698 5696 5694 5692 5691 5689 5687 5685 5684
5680 5667 5659 5667 5677 5687 5686 5685 5680 5669 5657 5651 5651 5669 5697 5697 5699 5702 5705 5707 5708 5708 5708 5708 5706 5705 5705 5705 5703 5701 5700 5698 5697 5696 5694 5692 5690 5688 5687 5685 5684 5682 5680 5678
5680 5660 5658 5657 5665 5673 5674 5677 5675 5665 5653 5652 5659 5671 5683 5687 5689 5694 5696 5699 5700 5700 5701 5701 5699 5699 5699 5699 5698 5695 5694 5694 5692 5690 5688 5687 5685 5683 5681 5680 5678 5676 5675 5673
5668 5655 5660 5665 5672 5673 5672 5671 5672 5666 5664 5659 5666 5669 5677 5681 5684 5687 5689 5690 5691 5691 5693 5694 5694 5693 5692 5692 5691 5690 5689 5689 5687 5685 5683 5682 5680 5678 5676 5674 5673 5671 5669 5667
5651 5649 5652 5656 5665 5666 5663 5666 5668 5666 5666 5664 5665 5667 5676 5678 5680 5680 5681 5682 5682 5684 5685 5686 5687 5687 5687 5686 5686 5685 5684 5683 5682 5679 5677 5676 5674 5672 5670 5668 5667 5665 5663 5661
5639 5639 5638 5639 5652 5655 5646 5656 5660 5660 5661 5660 5657 5662 5669 5671 5672 5672 5673 5674 5676 5677 5679 5680 5680 5681 5681 5682 5682 5680 5680 5678 5676 5674 5673 5671 5669 5666 5664 5663 5661 5658 5656 5655
5632 5629 5625 5628 5638 5631 5644 5658 5659 5655 5655 5657 5658 5660 5662 5664 5665 5667 5668 5669 5670 5672 5673 5674 5675 5675 5675 5676 5676 5675 5673 5672 5670 5668 5667 5666 5664 5661 5659 5657 5655 5653 5650 5648
5630 5624 5617 5616 5621 5630 5642 5648 5647 5646 5646 5651 5651 5653 5655 5658 5660 5659 5662 5663 5663 5664 5666 5668 5669 5669 5669 5669 5669 5668 5666 5665 5664 5662 5660 5659 5658 5656 5653 5651 5649 5647 5645 5642
5621 5620 5613 5610 5615 5619 5630 5641 5647 5645 5637 5645 5645 5645 5646 5649 5646 5647 5653 5655 5656 5657 5659 5661 5661 5661 5662 5661 5661 5659 5658 5657 5657 5656 5655 5653 5651 5649 5647 5645 5643 5641 5640 5638
5607 5606 5605 5604 5609 5616 5626 5634 5641 5629 5628 5638 5639 5639 5639 5638 5639 5640 5644 5647 5648 5649 5650 5652 5653 5653 5654 5654 5652 5651 5650 5650 5650 5649 5648 5645 5643 5642 5641 5639 5637 5635 5634 5633
5597 5596 5597 5597 5601 5607 5621 5625 5623 5622 5628 5631 5632 5632 5631 5632 5633 5634 5636 5637 5639 5640 5641 5643 5644 5644 5645 5646 5645 5643 5642 5643 5642 5641 5640 5638 5636 5635 5634 5632 5630 5629 5627 5626
5592 5594 5595 5595 5598 5607 5611 5615 5618 5620 5622 5624 5624 5625 5625 5625 5625 5626 5626 5627 5629 5631 5632 5633 5634 5635 5636 5636 5636 5635 5634 5634 5634 5633 5631 5630 5629 5628 5626 5625 5623 5621 5620 5619
5588 5589 5590 5592 5598 5603 5607 5610 5613 5615 5616 5617 5618 5618 5618 5617 5617 5617 5617 5618 5619 5621 5622 5624 5625 5626 5626 5626 5627 5627 5627 5627 5626 5625 5624 5623 5621 5619 5618 5617 5616 5615 5614 5613
5582 5583 5583 5586 5593 5598 5602 5603 5605 5607 5609 5609 5610 5610 5609 5609 5608 5608 5608 5609 5610 5612 5613 5614 5615 5616 5617 5618 5619 5620 5620 5620 5618 5617 5617 5615 5614 5612 5610 5609 5608 5608 5608 5607
5574 5576 5577 5581 5587 5587 5591 5597 5599 5599 5600 5601 5601 5601 5601 5601 5600 5600 5599 5600 5601 5602 5604 5605 5606 5608 5609 5609 5610 5612 5612 5613 5612 5611 5610 5609 5607 5606 5604 5603 5601 5601 5601 5600